Weather Service Report


879 
ASUS42 KTBW 031718
RWRFL 
FLORIDA REGIONAL WEATHER ROUNDUP
NATIONAL WEATHER SERVICE TAMPA BAY RUSKIN FL
100 PM EDT MON AUG 03 2015

NOTE: "FAIR" INDICATES FEW OR NO CLOUDS BELOW 12,000 FEET WITH NO
SIGNIFICANT WEATHER AND/OR OBSTRUCTIONS TO VISIBILITY.


FLZ001>010-012>015-112-114-115-031800-
PANHANDLE FLORIDA
  
CITY           SKY/WX    TMP DP  RH WIND       PRES   REMARKS
PENSACOLA      SUNNY     93  65  39 NE5       29.91S HX  95           
PENSACOLA NAS  MOSUNNY   95  61  32 VRB3      29.90F HX  95           
MILTON NAS     MOSUNNY   95  62  33 CALM      29.91  HX  96           
CRESTVIEW      SUNNY     96  66  37 VRB5      29.92F HX  99           
VALPARAISO     MOSUNNY   95  61  31 N8        29.90F HX  95           
MARY ESTHER    SUNNY     93  74  53 S7        29.89F HX 102           
TRI COUNTY     FAIR      94  73  50 NW3       29.90F HX 103           
PANAMA CITY    FAIR      95  66  38 NE6       29.88F HX  98           
TYNDALL AFB    SUNNY     90  78  67 SW8       29.90F HX 104           
APALACHICOLA   MOSUNNY   97  72  44 VRB7      29.89F HX 105           

STATION/POSITION SKY/WX   TEMP    WIND        PRES    WAVE   SWELL
                          AIR SEA DIR/SP/G            HT/PER HT/PER
                          (F)     (DEG/KT/KT) (MB)    (FT/S) (FT/S)
30.1N   87.6W              86 87   CALM  /  2 1012.5S   1/ 5   2/ 5
29.2N   88.2W              82 87  220/  8/ 12 1014.4R   2/ 6   2/ 6
28.8N   86.0W              85 87  250/ 16/ 17 1013.8F   4/ 6
PANAMA CITY BEAC           87 86  210/  5/  6 1012.7R
CAPE SAN BLAS    NOT AVBL
TOWER C                    84     260/ 11/ 12 1012.8F
28.5N   84.5W              85 84  260/ 16/ 19 1013.6R   5/ 6

$$
FLZ011-016>038-118-127-128-134-139-239-031800-
NORTH FLORIDA
  
CITY           SKY/WX    TMP DP  RH WIND       PRES   REMARKS
MARIANNA       SUNNY     91  76  61 E6        29.89F HX 103           
TALLAHASSEE    MOSUNNY   93  74  53 N9        29.89F HX 103           
PERRY          PTSUNNY   85  74  71 NW3       29.90F                  
CROSS CITY       N/A     84  77  79 W7        29.90S                  
LAKE CITY      CLOUDY    79  77  94 W6        29.89S                  
GAINESVILLE    CLOUDY    80  76  87 W8        29.89F                  
MAYPORT NAS    LGT RAIN  79  76  90 S12       29.88F                  
JACKSONVILLE   CLOUDY    80  75  84 S8        29.87F                  
JAX NAS        CLOUDY    83  75  77 S12       29.88S                  
JAX CRAIG      LGT RAIN  79  76  90 S9        29.88S FOG              
JAX CECIL      CLOUDY    82  75  78 S5        29.88S FOG              
FERNANDINA BEA CLOUDY    82  75  78 SE9       29.87S                  
ST AUGUSTINE   LGT RAIN  77  75  93 S12       29.90F FOG              

STATION/POSITION SKY/WX   TEMP    WIND        PRES    WAVE   SWELL
                          AIR SEA DIR/SP/G            HT/PER HT/PER
                          (F)     (DEG/KT/KT) (MB)    (FT/S) (FT/S)
SHELL POINT                87     330/  6/  9   N/A
KEATON BEACH               81     250/  7/  8 1012.8F
CEDAR KEY                  81     230/ 14/ 17 1013.5R
FERNANDINA                 80 82  170/  8/ 12 1011.4F
30.7N   81.3W                 82                N/A     5/ 6   2/12
MAYPORT                    78 80  170/  5/  9 1012.3F
31.4N   80.9W              82 83  170/ 17/ 23 1012.3F   5/ 6   2/12
ST AUGUSTINE               76 78  210/ 11/ 14 1013.3S

$$
FLZ040-043>046-052-053-057-058-063-144-031800-
INTERIOR CENTRAL FLORIDA
  
CITY           SKY/WX    TMP DP  RH WIND       PRES   REMARKS
OCALA          LGT RAIN  77  73  88 SW12      29.93F                  
THE VILLAGES     N/A     75  75 100 S10       29.84F                  
LEESBURG       LGT RAIN  74  72  93 S15       29.96F                  
SANFORD        CLOUDY    77  70  79 S12G20    29.96F                  
ORLANDO EXEC   CLOUDY    77  72  84 SW16      29.97F                  
ORLANDO INTL   PTSUNNY   76  72  87 SW15      29.99F                  
KISSIMMEE      PTSUNNY   75  73  94 SW14      29.99F                  
WINTER HAVEN   CLOUDY    75  73  93 SW13G22   30.01F                  
LAKELAND       LGT RAIN  73  72  94 S12       30.01F                  
BARTOW         PTSUNNY   73 N/A N/A S5        30.03F                  
OKEECHOBEE     CLOUDY    82  72  69 W15G21    30.03F                  

$$
FLZ041-047-054-059-064-141-147-031800-
EAST CENTRAL FLORIDA
  
CITY           SKY/WX    TMP DP  RH WIND       PRES   REMARKS
ORMOND BEACH   CLOUDY   N/A N/A N/A SW16G25   29.94S FOG              
DAYTONA BEACH  CLOUDY    75  72  90 SW13G24   29.95S                  
DELAND           N/A     73  72  94 S14G20    29.97R                  
NEW SMYRNA BEA PTSUNNY   77  72  83 SW15G24   29.95R                  
JFK SPACE CTR  CLOUDY    82  73  73 SW17G24   29.97F                  
TITUSVILLE     PTSUNNY   79  73  83 SW17G23   29.99                   
CAPE CANAVERAL CLOUDY    82  73  74 SW14      29.97F                  
PATRICK AFB    CLOUDY    81  72  75 W18       30.00S                  
MELBOURNE      CLOUDY    81  72  74 W14G23    30.00S                  
VERO BEACH     PTSUNNY   88  71  57 W14       30.01R                  
FT PIERCE      PTSUNNY   87  74  64 W14       30.00S HX  95           
STUART         PTSUNNY   70  72 100 SW8       30.02F                  

STATION/POSITION SKY/WX   TEMP    WIND        PRES    WAVE   SWELL
                          AIR SEA DIR/SP/G            HT/PER HT/PER
                          (F)     (DEG/KT/KT) (MB)    (FT/S) (FT/S)
28.5N   80.2W              81 83  200/ 16/ 19 1015.5R
28.9N   78.5W              83 84  190/ 19/ 21 1015.9R
TRIDENT PIER               81 78  220/ 17/ 23 1016.1R
28.4N   80.5W                 77                N/A     2/11
27.5N   80.2W                 80                N/A     2/12

$$
FLZ050-056-061-142-242-148-248-149-249-151-251-155-255-
160-260-031800-
WEST CENTRAL FLORIDA
  
CITY           SKY/WX    TMP DP  RH WIND       PRES   REMARKS
CRYSTAL RIVER  DRIZZLE   79  77  94 SW7       29.94F                  
INVERNESS      PTSUNNY   77  75  94 SW7       29.94F                  
BROOKSVILLE    LGT RAIN  76  74  93 SW13      29.97F                  
ZEPHYRHILLS    LGT RAIN  70  70 100 CALM      29.99F                  
CLEARWATER     CLOUDY    78  75  90 SW8       30.00R                  
TAMPA INTL     CLOUDY    77  74  90 S10       30.00F                  
TAMPA EXEC     LGT RAIN  75  72  88 SW7       30.01S                  
PLANT CITY     LGT RAIN  75  75 100 S8        30.03S                  
MACDILL AFB    DRIZZLE   76  76 100 SW13      30.00S                  
PETER O KNIGHT DRIZZLE   79  77  94 SW6       30.01S                  
ST PETERSBURG  LGT RAIN  79  73  82 W9        29.99S                  
SARASOTA       CLOUDY    80  70  71 W15G22    30.01R                  
VENICE         LGT RAIN  81  70  69 W9        30.04F                  

STATION/POSITION SKY/WX   TEMP    WIND        PRES    WAVE   SWELL
                          AIR SEA DIR/SP/G            HT/PER HT/PER
                          (F)     (DEG/KT/KT) (MB)    (FT/S) (FT/S)
CEDAR KEY                  81     230/ 14/ 17 1013.5R
28.5N   84.5W              85 84  260/ 16/ 19 1013.6R   5/ 6
27.3N   84.2W                 83                N/A     4/ 6
CLEARWATER BEACH           77 80  270/ 18/ 22 1015.5F
MIDDLE TAMPA BAY           78     250/ 13/ 18 1016.3F
VENICE                     81 83  260/ 14/ 15 1016.5F

$$
FLZ066-069-070-075>078-162-262-165-265-031800-
SOUTHWEST FLORIDA AND KEYS
  
CITY           SKY/WX    TMP DP  RH WIND       PRES   REMARKS
PUNTA GORDA    LGT RAIN  77  71  82 W10       30.07R                  
FT MYERS       RAIN      73  71  93 NW13      30.05S FOG              
SOUTHWEST INTL LGT RAIN  73  70  90 N12       30.06S FOG              
NAPLES         LGT RAIN  81  76  84 NW15G25   30.04R                  
MARCO ISLAND   PTSUNNY   91  72  52 W9        30.02S HX  98           
MARATHON       CLOUDY    91  77  63 S6        30.02S HX 104           
KEY WEST NAS   CLOUDY    90  74  59 S7        30.01F HX  99           
KEY WEST INTL  MOSUNNY   88  74  63 S7        30.02S HX  96           

STATION/POSITION SKY/WX   TEMP    WIND        PRES    WAVE   SWELL
                          AIR SEA DIR/SP/G            HT/PER HT/PER
                          (F)     (DEG/KT/KT) (MB)    (FT/S) (FT/S)
VENICE                     81 83  260/ 14/ 15 1016.5F
NAPLES                        86              1017.6R
26.0N   85.6W              81 83  270/ 12/ 16 1015.7F   1/ 3
DRY TORTUGAS               85     160/  5/  6 1016.4R
NW FL BAY                  86     180/  5/  6 1016.5
SAND KEY                   85     160/  4/  5 1016.5F
SOMBRERO KEY               86     140/  7/ 10 1017.2F
LONG KEY                   86 89  170/  8/ 10 1017.2F
MOLASSES REEF              84 87  160/ 10/ 11 1016.5F

$$
FLZ067-068-071>074-168-172>174-031800-
SOUTHEAST FLORIDA 
  
CITY           SKY/WX    TMP DP  RH WIND       PRES   REMARKS
W PALM BEACH   PTSUNNY   88  71  57 SW9       30.01F                  
FT LAUDER-EXEC MOSUNNY   92  71  50 SE6       30.01F HX  98           
FT LAUDERDALE  CLOUDY    90  69  50 S7        30.00F                  
POMPANO BEACH  MOSUNNY   89  72  56 SE14      30.01S HX  96           
PEMBROKE PINES MOSUNNY   91  70  49 S8        30.02F HX  96           
OPA LOCKA      MOSUNNY   92  72  51 S9        30.01F HX  99           
MIAMI          PTSUNNY   90  73  57 VRB7      30.01F HX  98           
WEST KENDALL   PTSUNNY   89  73  59 S8        30.00F HX  97           
HOMESTEAD      MOSUNNY   89  75  62 SE9       30.01F HX  99           

STATION/POSITION SKY/WX   TEMP    WIND        PRES    WAVE   SWELL
                          AIR SEA DIR/SP/G            HT/PER HT/PER
                          (F)     (DEG/KT/KT) (MB)    (FT/S) (FT/S)
PORT EVERGLADES            86     150/ 12/ 15 1016.3F
VIRGINIA KEY               85 87  220/  8/ 10 1016.6R
LAKE WORTH                 84 83  170/ 12/ 14 1016.3R
SETTLEMENT POINT           84     200/ 14/ 15 1017.7F

$$


Return to Home page


Western Regional Climate Center, wrcc@dri.edu